Weather History for Leesburg, FL

Change the Weather History Date:

Saturday, August 16, 2014

  Actual Average Record
Temperature  
Mean Temperature 80 °F -  
Max Temperature 88 °F 91 °F 98 °F (1991)
Min Temperature 73 °F 72 °F 69 °F (1990)
Cooling Degree Days 16    
Growing Degree Days 30 (Base 50)    
Moisture  
Dew Point 74 °F    
Average Humidity 82    
Maximum Humidity 94    
Minimum Humidity 65    
Precipitation  
Precipitation 0.05 in - - ()
Sea Level Pressure  
Sea Level Pressure 30.07 in    
Wind  
Wind Speed 5 mph (SSW)    
Max Wind Speed 10 mph    
Max Gust Speed 23 mph    
Visibility 10 miles    
Events Thunderstorm    
Averages and records for this station are not official NWS values.
T = Trace of Precipitation, MM = Missing Value Source: NWS Daily Summary

Daily Weather History Graph

Daily Weather History Graph

Search for Another Location

Airport:

Trip Planner

Search our weather history database for the weather conditions in past years. The results will help you decide how hot, cold, wet, or windy it might be!

Date:

Astronomy

Aug. 16, 2014 Rise Set
Actual Time 6:56 AM EDT 8:05 PM EDT
Civil Twilight 6:32 AM EDT 8:30 PM EDT
Nautical Twilight 6:02 AM EDT 8:59 PM EDT
Astronomical Twilight 5:32 AM EDT 9:30 PM EDT
Moon No Moon Rise 1:06 PM EDT (8/16)
Length of Visible Light 13h 58m
Length of Day
13h 08m
Waning Gibbous, 59% of the Moon is Illuminated
Aug 16
Waning Gibbous
Aug 17
Last Quarter
Aug 25
New
Sep 2
First Quarter
Sep 8
Full

Hourly Weather History & Observations

Time (EDT) Temp. Heat Index Dew Point Humidity Pressure Visibility Wind Dir Wind Speed Gust Speed Precip Events Conditions
1:53 AM 73.0 °F - 70.0 °F 90% 30.03 in 10.0 mi South 4.6 mph - N/A   Clear
2:53 AM 75.0 °F - 71.1 °F 87% 30.02 in 10.0 mi SSW 5.8 mph - N/A   Clear
3:53 AM 75.0 °F - 72.0 °F 90% 30.03 in 10.0 mi SSW 5.8 mph - N/A   Clear
4:53 AM 75.0 °F - 72.0 °F 90% 30.02 in 10.0 mi SW 5.8 mph - N/A   Clear
5:53 AM 75.0 °F - 72.0 °F 90% 30.03 in 10.0 mi SW 3.5 mph - N/A   Clear
6:53 AM 75.0 °F - 72.0 °F 90% 30.05 in 10.0 mi Calm Calm - N/A   Clear
7:53 AM 75.9 °F - 73.0 °F 91% 30.06 in 10.0 mi WSW 3.5 mph - N/A   Clear
8:53 AM 80.1 °F 85.1 °F 75.0 °F 85% 30.08 in 10.0 mi South 4.6 mph - N/A   Partly Cloudy
9:53 AM 82.9 °F 90.8 °F 75.9 °F 79% 30.09 in 10.0 mi South 5.8 mph - N/A   Clear
10:53 AM 86.0 °F 95.1 °F 75.0 °F 70% 30.09 in 10.0 mi WSW 4.6 mph - N/A   Mostly Cloudy
11:53 AM 88.0 °F 98.5 °F 75.9 °F 67% 30.09 in 10.0 mi Variable 3.5 mph - N/A Thunderstorm Mostly Cloudy
12:02 PM 88.0 °F 97.5 °F 75.0 °F 65% 30.09 in 10.0 mi Calm Calm - N/A Thunderstorm Scattered Clouds
12:10 PM 88.0 °F 97.5 °F 75.0 °F 65% 30.10 in 10.0 mi West 10.4 mph 23.0 mph N/A Thunderstorm Thunderstorm
1:01 PM 77.0 °F - 70.0 °F 79% 30.09 in 10.0 mi WSW 3.5 mph - 0.00 in Thunderstorm Scattered Clouds
1:19 PM 77.0 °F - 72.0 °F 84% 30.10 in 10.0 mi SSW 3.5 mph - 0.00 in   Partly Cloudy
1:53 PM 79.0 °F - 73.9 °F 84% 30.09 in 10.0 mi South 4.6 mph - 0.00 in   Clear
2:53 PM 81.0 °F 86.7 °F 75.0 °F 82% 30.08 in 10.0 mi South 8.1 mph - N/A   Clear
3:53 PM 82.0 °F 89.4 °F 75.9 °F 82% 30.07 in 10.0 mi SSW 9.2 mph - N/A   Clear
4:53 PM 82.0 °F 88.6 °F 75.0 °F 79% 30.07 in 10.0 mi South 10.4 mph - N/A   Clear
5:53 PM 84.0 °F 92.6 °F 75.9 °F 76% 30.07 in 10.0 mi SSW 6.9 mph - N/A   Clear
6:53 PM 82.9 °F 90.8 °F 75.9 °F 79% 30.06 in 10.0 mi SSW 6.9 mph - N/A   Clear
7:53 PM 81.0 °F 86.7 °F 75.0 °F 82% 30.07 in 10.0 mi SSW 8.1 mph - N/A   Clear
8:53 PM 80.1 °F 85.1 °F 75.0 °F 85% 30.08 in 10.0 mi SSW 5.8 mph - N/A   Clear
9:53 PM 79.0 °F - 75.9 °F 90% 30.09 in 10.0 mi SSW 4.6 mph - N/A   Clear
10:53 PM 80.1 °F 85.8 °F 77.0 °F 90% 30.10 in 10.0 mi SSW 5.8 mph - N/A   Clear
11:53 PM 79.0 °F - 77.0 °F 94% 30.10 in 10.0 mi SSW 8.1 mph - N/A   Clear